Hurlburt Field, FL

6:07 PM CDT on March 27, 2017 (GMT -0500)
Hurlburt

Weather History for KHRT - December, 2012

Change the Weather History Date:

Monday, December 31, 2012

  Actual Average Record
Temperature  
Mean Temperature 48 °F -  
Max Temperature 61 °F 58 °F 71 °F (1996)
Min Temperature 35 °F 40 °F 35 °F (2001)
Degree Days  
Heating Degree Days 17    
Moisture  
Dew Point 51 °F    
Average Humidity 89    
Maximum Humidity 100    
Minimum Humidity 78    
Precipitation  
Precipitation 0.00 in - - ()
Sea Level Pressure  
Sea Level Pressure 30.25 in    
Wind  
Wind Speed 6 mph (ENE)    
Max Wind Speed 9 mph    
Max Gust Speed -    
Visibility 10 miles    
Events Rain    
Averages and records for this station are not official NWS values.
T = Trace of Precipitation, MM = Missing Value Source: NWS Daily Summary

Daily Weather History Graph

Daily Weather History Graph

Search for Another Location

Airport or City:

Trip Planner

Search our weather history database for the weather conditions in past years. The results will help you decide how hot, cold, wet, or windy it might be!

Date:

Astronomy

Dec. 31, 2012 Rise Set
Actual Time 6:43 AM CST 4:56 PM CST
Civil Twilight 6:17 AM CST 5:23 PM CST
Nautical Twilight 5:47 AM CST 5:53 PM CST
Astronomical Twilight 5:17 AM CST 6:22 PM CST
Moon 8:11 PM CST (12/31) 8:38 AM CST (12/31)
Length of Visible Light 11h 06m
Length of Day
10h 13m
Waning Gibbous, 90% of the Moon is Illuminated
Dec 31
Waning Gibbous
Jan 4
Last Quarter
Jan 11
New
Jan 18
First Quarter
Jan 26
Full

Hourly Weather History & Observations

Time (CST) Temp. Windchill Dew Point Humidity Pressure Visibility Wind Dir Wind Speed Gust Speed Precip Events Conditions
12:55 AM 35.6 °F 31.7 °F 32.9 °F 90% 30.36 in 10.0 mi NE 4.6 mph - N/A   Clear
1:55 AM 38.7 °F 34.3 °F 32.2 °F 78% 30.35 in 4.0 mi NE 5.8 mph - N/A   Haze
2:55 AM 39.6 °F 34.7 °F 33.1 °F 78% 30.34 in 9.0 mi NE 6.9 mph - N/A   Clear
3:55 AM 38.8 °F 34.6 °F 32.9 °F 79% 30.32 in 10.0 mi NE 5.8 mph - N/A   Clear
4:55 AM 38.7 °F 34.3 °F 33.1 °F 80% 30.32 in 10.0 mi NE 5.8 mph - N/A   Clear
5:55 AM 38.7 °F 32.9 °F 33.1 °F 80% 30.32 in 10.0 mi ENE 8.1 mph - N/A   Clear
6:41 AM 39.2 °F 34.2 °F 35.6 °F 87% 30.31 in 10.0 mi ENE 6.9 mph - N/A   Mostly Cloudy
6:55 AM 40.3 °F 36.3 °F 35.6 °F 83% 30.33 in 10.0 mi NNE 5.8 mph - N/A   Overcast
7:55 AM 44.8 °F 41.0 °F 40.6 °F 85% 30.32 in 10.0 mi ENE 6.9 mph - N/A   Overcast
8:26 AM 46.4 °F 44.3 °F 41.0 °F 81% 30.32 in 10.0 mi ENE 4.6 mph - N/A   Scattered Clouds
8:55 AM 49.1 °F - 43.9 °F 82% 30.34 in 10.0 mi NE 5.8 mph - N/A   Scattered Clouds
8:56 AM 50.0 °F - 44.6 °F 82% 30.34 in 10.0 mi NE 4.6 mph - N/A   Mostly Cloudy
9:32 AM 51.8 °F - 46.4 °F 82% 30.33 in 10.0 mi NE 5.8 mph - N/A   Overcast
9:40 AM 51.8 °F - 46.4 °F 82% 30.33 in 10.0 mi NE 6.9 mph - N/A Rain Light Rain
9:55 AM 53.2 °F - 47.3 °F 80% 30.33 in 10.0 mi NE 8.1 mph - 0.00 in Rain Light Rain
9:59 AM 53.6 °F - 48.2 °F 82% 30.33 in 10.0 mi ENE 6.9 mph - N/A   Overcast
10:45 AM 55.4 °F - 50.0 °F 82% 30.32 in 10.0 mi Variable 5.8 mph - N/A Rain Light Rain
10:55 AM 57.2 °F - 50.9 °F 79% 30.32 in 10.0 mi ENE 9.2 mph - 0.00 in Rain Light Rain
10:56 AM 57.2 °F - 51.8 °F 82% 30.32 in 10.0 mi ENE 8.1 mph - N/A   Overcast
11:41 AM 57.2 °F - 51.8 °F 82% 30.30 in 10.0 mi East 8.1 mph - N/A   Overcast
11:55 AM 57.6 °F - 52.5 °F 83% 30.29 in 10.0 mi East 6.9 mph - N/A   Overcast
12:55 PM 59.7 °F - 54.7 °F 83% 30.26 in 10.0 mi ENE 5.8 mph - N/A   Overcast
1:08 PM 60.8 °F - 55.4 °F 82% 30.25 in 10.0 mi ENE 6.9 mph - N/A   Overcast
1:34 PM 60.8 °F - 55.4 °F 82% 30.23 in 10.0 mi ENE 9.2 mph - N/A   Overcast
1:46 PM 60.8 °F - 55.4 °F 82% 30.22 in 10.0 mi ENE 6.9 mph - N/A   Overcast
1:55 PM 61.0 °F - 56.1 °F 84% 30.22 in 10.0 mi East 8.1 mph - N/A   Overcast
2:55 PM 61.0 °F - 57.0 °F 87% 30.20 in 10.0 mi ENE 8.1 mph - N/A   Overcast
3:05 PM 60.8 °F - 57.2 °F 88% 30.20 in 10.0 mi East 6.9 mph - N/A   Mostly Cloudy
3:10 PM 60.8 °F - 57.2 °F 88% 30.20 in 10.0 mi Variable 6.9 mph - N/A   Mostly Cloudy
3:18 PM 60.8 °F - 57.2 °F 88% 30.20 in 10.0 mi East 9.2 mph - N/A   Mostly Cloudy
4:55 PM 59.7 °F - 57.4 °F 92% 30.19 in 10.0 mi ENE 6.9 mph - N/A   Overcast
5:21 PM 59.0 °F - 57.2 °F 94% 30.19 in 10.0 mi ENE 6.9 mph - N/A   Mostly Cloudy
5:28 PM 59.0 °F - 57.2 °F 94% 30.19 in 10.0 mi ENE 4.6 mph - N/A   Mostly Cloudy
5:55 PM 59.4 °F - 57.9 °F 95% 30.21 in 10.0 mi North 4.6 mph - N/A   Overcast
6:44 PM 59.0 °F - 57.2 °F 94% 30.22 in 10.0 mi NNE 4.6 mph - N/A   Light Drizzle
6:55 PM 57.9 °F - 57.0 °F 97% 30.22 in 10.0 mi NNE 3.5 mph - 0.00 in Rain Light Rain
7:46 PM 57.2 °F - 57.2 °F 100% 30.22 in 10.0 mi NNE 4.6 mph - N/A   Overcast
7:55 PM 56.3 °F - 56.3 °F 100% 30.22 in 10.0 mi East 5.8 mph - 0.00 in   Overcast
7:58 PM 55.4 °F - 55.4 °F 100% 30.20 in 10.0 mi East 8.1 mph - N/A   Overcast
8:07 PM 55.4 °F - 55.4 °F 100% 30.19 in 10.0 mi East 6.9 mph - N/A   Scattered Clouds
8:41 PM 57.2 °F - 57.2 °F 100% 30.19 in 10.0 mi East 6.9 mph - N/A   Mostly Cloudy
8:53 PM 57.2 °F - 57.2 °F 100% 30.18 in 10.0 mi East 6.9 mph - N/A   Mostly Cloudy
8:55 PM 56.7 °F - 56.7 °F 100% 30.18 in 10.0 mi East 5.8 mph - N/A   Mostly Cloudy
8:58 PM 57.2 °F - 57.2 °F 100% 30.19 in 10.0 mi East 5.8 mph - N/A   Mostly Cloudy
9:36 PM 57.2 °F - 57.2 °F 100% 30.19 in 10.0 mi East 4.6 mph - N/A   Overcast
9:51 PM 57.2 °F - 57.2 °F 100% 30.17 in 10.0 mi East 6.9 mph - N/A   Overcast
9:55 PM 56.8 °F - 56.8 °F 100% 30.17 in 10.0 mi Variable 6.9 mph - N/A   Overcast
10:48 PM 59.0 °F - 59.0 °F 100% 30.15 in 10.0 mi East 9.2 mph - N/A   Overcast
10:55 PM 58.6 °F - 58.6 °F 100% 30.14 in 10.0 mi East 4.6 mph - N/A   Overcast
11:27 PM 59.0 °F - 59.0 °F 100% 30.14 in 10.0 mi East 4.6 mph - N/A   Scattered Clouds
11:55 PM 59.9 °F - 59.9 °F 100% 30.12 in 10.0 mi ESE 5.8 mph - N/A   Scattered Clouds